734  
ASUS44 KSHV 031110  
RWRSHV  
 
THE FOUR STATE AREA WEATHER ROUNDUP  
NATIONAL WEATHER SERVICE SHREVEPORT LA  
500 AM CST SUN MAR 03 2024  
 
NOTE: "FAIR" INDICATES FEW OR NO CLOUDS BELOW 12000 FEET  
WITH NO SIGNIFICANT WEATHER AND/OR S TO VISIBILITY
.  
 
!LAZ001-LAZ014-TXZ097-031200  
SHREVEPORT...MONROE...TEXARKANA RADIOS  
 
CITY SKY/WX TMP DP RH WIND PRES REMARKS
 
SHREVEPORT PTCLDY 57 54 88 SE7 29.94R FOG  
MONROE CLOUDY 61 58 90 SE5 30.01R  
NATCHITOCHES FOG 60 60 100 S3 29.98S VSB 1  
TEXARKANA CLOUDY 62 57 83 S6 29.93R  
ATLANTA CLOUDY 62 60 93 S5 29.92R  

 
 
!LAZ001-LAZ014-TXZ097-031200  
OTHER LOCATIONS...  
 
CITY SKY/WX TMP DP RH WIND PRES REMARKS
 
DOWNTOWN SHV CLEAR 58 55 90 SE5 29.96R  
BOSSIER CITY MOCLDY 55 54 94 SE7 29.95R  
RUSTON FOG 57 57 100 S5 29.98R VSB 3/4  
LITTLE ROCK MOCLDY 51 47 86 CALM 29.97S  
EL DORADO CLEAR 52 52 100 SE5 29.97R  
JACKSON CLOUDY 58 57 97 S3 30.05R FOG  
NEW ORLEANS CLOUDY 63 63 100 E12 30.02F FOG  
HOUSTON FOG 64 63 96 S3 29.94S VSB 1/4  
LUFKIN FOG 61 60 97 SE8 29.95R VSB 1  
TYLER PTCLDY 61 57 87 S8 29.92S  
DAL FT WORTH CLOUDY 62 58 86 S15 29.84S  

 
 
!TXZ136-TXZ165-031200  
TYLER...LUFKIN RADIOS  
 
CITY SKY/WX TMP DP RH WIND PRES REMARKS
 
TYLER PTCLDY 61 57 87 S8 29.92S  
GILMER CLOUDY 63 58 83 S7 29.93S  
LONGVIEW CLOUDY 65 60 84 SW12G18 29.94R  
LUFKIN FOG 61 60 97 SE8 29.95R VSB 1  

 
 
!TXZ136-TXZ165-031200  
OTHER LOCATIONS...  
 
CITY SKY/WX TMP DP RH WIND PRES REMARKS
 
NACOGDOCHES FOG 61 N/A N/A SE6 29.97R VSB 3/4  
BEAUMONT CLOUDY 65 64 97 SE3 29.96S FOG  
HOUSTON FOG 64 63 96 S3 29.94S VSB 1/4  
COLLEGE STN FOG 62 61 96 S9 29.93R VSB 3/4  
AUSTIN CLOUDY 64 61 90 S7 29.90F  
DAL FT WORTH CLOUDY 62 58 86 S15 29.84S  
TEXARKANA CLOUDY 62 57 83 S6 29.93R  
SHREVEPORT PTCLDY 57 54 88 SE7 29.94R FOG  
FORT POLK CLOUDY 63 62 98 S5 29.96S  
LAKE CHARLES CLOUDY 63 62 97 SE8 29.98S  

 
 
 
CLICK HERE TO GO TO PREVIOUS BULLETINS.

The Nexlab LA Page
The Nexlab TX Page
The Nexlab AR Page
The Nexlab OK Page Main Text Page